Swansboro, NC

9:48 AM EDT on May 28, 2017 (GMT -0400)
Bogue McAlf

Weather History for KNJM - November, 2012

Change the Weather History Date:

Friday, November 9, 2012

  Actual Average (KNKT) Record (KNKT)
Temperature  
Mean Temperature 47 °F -  
Max Temperature 59 °F 64 °F 78 °F (2000)
Min Temperature 35 °F 43 °F 32 °F (2012)
Degree Days  
Heating Degree Days 18    
Moisture  
Dew Point 30 °F    
Average Humidity 55    
Maximum Humidity 89    
Minimum Humidity 30    
Precipitation  
Precipitation 0.00 in - - ()
Sea Level Pressure  
Sea Level Pressure 30.22 in    
Wind  
Wind Speed 6 mph (NNW)    
Max Wind Speed 9 mph    
Max Gust Speed -    
Visibility 10 miles    
Events      
Averages and records for this station are not official NWS values.
T = Trace of Precipitation, MM = Missing Value Source: NWS Daily Summary

Daily Weather History Graph

Daily Weather History Graph

Search for Another Location

Airport or City:

Trip Planner

Search our weather history database for the weather conditions in past years. The results will help you decide how hot, cold, wet, or windy it might be!

Date:

Astronomy

Nov. 09, 2012 Rise Set
Actual Time 6:36 AM EST 5:06 PM EST
Civil Twilight 6:10 AM EST 5:33 PM EST
Nautical Twilight 5:39 AM EST 6:03 PM EST
Astronomical Twilight 5:10 AM EST 6:33 PM EST
Moon 1:44 AM EST (11/9) 2:09 PM EST (11/9)
Length of Visible Light 11h 23m
Length of Day
10h 30m
Waning Crescent, 23% of the Moon is Illuminated
Nov 9
Waning Crescent
Nov 13
New
Nov 20
First Quarter
Nov 28
Full
Dec 6
Last Quarter

Hourly Weather History & Observations

Time (EST) Temp. Windchill Dew Point Humidity Pressure Visibility Wind Dir Wind Speed Gust Speed Precip Events Conditions
12:57 AM 43.0 °F 39.5 °F 26.1 °F 51% 30.10 in 10.0 mi NNW 5.8 mph - N/A   Clear
1:57 AM 41.0 °F 36.4 °F 26.1 °F 55% 30.12 in 10.0 mi NNW 6.9 mph - N/A   Clear
2:57 AM 39.9 °F 35.8 °F 26.1 °F 58% 30.14 in 10.0 mi North 5.8 mph - N/A   Clear
3:57 AM 37.9 °F 33.5 °F 27.0 °F 65% 30.14 in 10.0 mi NNW 5.8 mph - N/A   Clear
4:57 AM 37.0 °F 33.3 °F 26.1 °F 65% 30.17 in 10.0 mi NNW 4.6 mph - N/A   Clear
5:57 AM 37.0 °F 32.4 °F 26.1 °F 65% 30.19 in 10.0 mi NNW 5.8 mph - N/A   Clear
6:57 AM 35.1 °F 30.1 °F 27.0 °F 72% 30.22 in 10.0 mi NW 5.8 mph - N/A   Clear
7:57 AM 42.1 °F 37.7 °F 27.0 °F 55% 30.24 in 10.0 mi North 6.9 mph - N/A   Clear
8:57 AM 48.0 °F - 27.0 °F 44% 30.25 in 10.0 mi North 9.2 mph - N/A   Clear
9:57 AM 52.0 °F - 27.0 °F 38% 30.27 in 10.0 mi NNE 6.9 mph - N/A   Clear
10:57 AM 55.0 °F - 27.0 °F 34% 30.28 in 10.0 mi North 9.2 mph - N/A   Clear
11:57 AM 57.0 °F - 26.1 °F 30% 30.25 in 10.0 mi North 9.2 mph - N/A   Clear
12:57 PM 59.0 °F - 28.9 °F 32% 30.24 in 10.0 mi NNE 4.6 mph - N/A   Clear
1:57 PM 59.0 °F - 28.0 °F 31% 30.22 in 10.0 mi Variable 5.8 mph - N/A   Clear
2:57 PM 59.0 °F - 28.0 °F 31% 30.22 in 10.0 mi Variable 6.9 mph - N/A   Clear
3:57 PM 57.0 °F - 34.0 °F 42% 30.23 in 10.0 mi WSW 3.5 mph - N/A   Clear
4:57 PM 50.0 °F - 39.9 °F 68% 30.24 in 10.0 mi SW 3.5 mph - N/A   Clear
5:57 PM 46.0 °F - 39.0 °F 76% 30.26 in 10.0 mi Calm Calm - N/A   Clear
7:57 PM 42.1 °F - 39.0 °F 89% 30.27 in 10.0 mi Calm Calm - N/A   Clear
8:57 PM 41.0 °F - 37.9 °F 89% 30.27 in 10.0 mi Calm Calm - N/A   Clear